Location: Devore Heights
(34.2372°N, 117.4156°W)
Time: 03:51:52
(UTC+00:00)

A-11 Canister half - Pass Details

Date: 15 September 2024
Orbit: 1515 x 1684 km, 47.2° (Epoch: 08 October)

Event Time Altitude Azimuth Distance (km) Brightness Sun altitude
Rises 06:49:52 0° 300° (WNW) 4,667 12.0 -50.8°
Reaches altitude 10° 06:53:07 10° 307° (NW) 3,678 11.3 -51.0°
Enters shadow 06:57:43 30° 327° (NNW) 2,471 10.3 -51.3°
